C/2020 R6 ( Rankin )

Japanese version
Home page
Updated on October 9, 2020

---------------------------------------------------------------------

* Profile

Discovery Date September 15, 2020
Magnitude 20.2 mag
Discoverer David Rankin (Mount Lemmon Survey)

* Orbital Elements

Epoch 2019 Oct. 4.0 TT = JDT 2458760.5
T 2019 Sept. 15.25185 TT                                Rudenko
q   2.9427605            (2000.0)            P               Q
z  -0.0082964      Peri.  268.64039     +0.00992314     +0.97636640
 +/-0.0085949      Node    12.61593     +0.25272834     +0.20644618
e   1.0244144      Incl.   81.28689     -0.96748639     +0.06394242
From 37 observations 2020 Sept. 15-23, mean residual 1".1.

* Magnitudes Graph

        m1 = 10.5 + 5 log d + 10.0 log r

---------------------------------------------------------------------

The orbital elements are published on M.P.E.C. 2020-S188.
The magnitudes graphs are made with Comet for Windows.

---------------------------------------------------------------------

Copyright(C) Seiichi Yoshida (comet@aerith.net). All rights reserved.